Overview Statistics Trail Chart Weather Telemetry Raw packets
 

This is the latest recevied weather packets stored in our database for station/object EA7URS-13. If no packets are shown the sender has not sent any weather packets the latest 10 day(s).

<< 64 65 66 67 68 69 70 >>
Time Temp. Humidity Pressure Rain* Wind** Luminosity Snow
1788213939 25.56° C 41% 1009.6 hPa 0 mm - 0 W/m² -
1788213638 25.56° C 41% 1009.8 hPa 0 mm - 0 W/m² -
1788213336 25.56° C 41% 1009.8 hPa 0 mm - 0 W/m² -
1788213020 26.11° C 41% 1009.6 hPa 0 mm - 0 W/m² -
1788212719 26.11° C 41% 1009.6 hPa 0 mm - 0 W/m² -
1788212418 26.67° C 40% 1009.9 hPa 0 mm - 0 W/m² -
1788212117 26.67° C 40% 1009.9 hPa 0 mm - 0 W/m² -
1788211816 27.22° C 39% 1009.7 hPa 0 mm - 0 W/m² -
1788211514 27.22° C 39% 1009.7 hPa 0 mm - 0 W/m² -
1788211213 27.78° C 38% 1009.7 hPa 0 mm - 0 W/m² -
1788210912 27.78° C 38% 1009.7 hPa 0 mm - 0 W/m² -
1788210611 28.33° C 36% 1009.7 hPa 0 mm - 0 W/m² -
1788210310 28.33° C 36% 1009.7 hPa 0 mm - 0 W/m² -
1788210009 28.89° C 33% 1009.5 hPa 0 mm - 0 W/m² -
1788209708 28.89° C 33% 1009.5 hPa 0 mm - 0 W/m² -
1788209407 30° C 29% 1009.3 hPa 0 mm - 0 W/m² -
1788209106 30° C 29% 1009.3 hPa 0 mm - 0 W/m² -
1788208805 30.56° C 27% 1009.2 hPa 0 mm - 0 W/m² -
1788208522 30.56° C 27% 1009.2 hPa 0 mm - 0 W/m² -
1788208203 31.67° C 25% 1009.1 hPa 0 mm - 0 W/m² -
1788207902 31.67° C 25% 1009.1 hPa 0 mm - 0 W/m² -
1788207600 31.67° C 25% 1008.9 hPa 0 mm - 0 W/m² -
1788207299 31.67° C 25% 1008.9 hPa 0 mm - 0 W/m² -
1788206998 31.67° C 25% 1008.7 hPa 0 mm - 0 W/m² -
1788206697 31.67° C 25% 1008.7 hPa 0 mm - 0 W/m² -

* Rain latest hour (hover to see other rain measurements)
** Current wind speed in m/s (hover to see current wind gust speed)